Location: Alafon
(8.4500°N, 4.2333°E)
Time: 17:11:32
(UTC+00:00)

SR - Pass Details

Date: 03 August 2021
Orbit: 581 x 874 km, 66.7° (Epoch: 18 September)

Event Time Altitude Azimuth Distance (km) Brightness Sun altitude
Rises 03:36:13 0° 190° (S) 3,420 - -28.3°
Reaches altitude 10° 03:38:44 10° 186° (S) 2,502 - -27.7°
Exits shadow 03:42:09 34° 167° (SSE) 1,388 ? -26.9°
Maximum altitude 03:44:25 54° 109° (ESE) 1,045 ? -26.4°
Drops below altitude 10° 03:50:06 10° 33° (NNE) 2,495 ? -25.1°
Sets 03:52:35 0° 29° (NNE) 3,410 ? -24.6°
